Weather reports worldwide

Advertisment
Alicante, Spain (8359): temperature & dewpoint: 03.08.2020 22:00:00 - 09.08.2020 22:00:00 (CEST)Alicante, Spain (8359): wind speed: 03.08.2020 22:00:00 - 09.08.2020 22:00:00 (CEST)Alicante, Spain (8359): wind direction: 03.08.2020 22:00:00 - 09.08.2020 22:00:00 (CEST)Alicante, Spain (8359): reduced air pressure: 03.08.2020 22:00:00 - 09.08.2020 22:00:00 (CEST)Alicante, Spain (8359): visibility: 03.08.2020 22:00:00 - 09.08.2020 22:00:00 (CEST)Alicante, Spain (8359): precipitation: 03.08.2020 22:00:00 - 09.08.2020 22:00:00 (CEST)
Date & Time tt [°C] td [°C] ff [km/h] ff [kn] dd ppp [hPa] vv [km] rr [mm]
09.08.2020 22:00:00 27,3 21,1 5 3 E 1013,9 20 0,0
09.08.2020 21:00:00 28,5 19,2 5 3 E 1013,5 20 0,0
09.08.2020 20:00:00 30,3 15,6 5 3 ESE 1013,3 20 -
09.08.2020 19:00:00 31,7 14,8 8 4 SSE 1013,6 20 0,0
09.08.2020 18:00:00 32,3 18,1 9 5 SE 1013,8 20 0,0
09.08.2020 17:00:00 33,2 14,3 9 5 SSE 1014,4 20 -
09.08.2020 16:00:00 32,8 20,0 9 5 SE 1015,0 20 0,0
09.08.2020 15:00:00 33,5 12,5 13 7 SSE 1015,5 20 0,0
09.08.2020 14:00:00 33,5 14,5 11 6 SSE 1015,9 20 -
09.08.2020 13:00:00 32,5 21,7 11 6 SSE 1016,3 20 0,0
09.08.2020 12:00:00 32,4 18,6 5 3 S 1016,5 20 0,0
09.08.2020 11:00:00 30,9 16,1 5 3 E 1016,2 20 -
09.08.2020 10:00:00 27,9 16,8 4 2 E 1016,2 20 0,0
09.08.2020 09:00:00 24,8 15,7 4 2 ENE 1016,0 20 0,0
09.08.2020 08:00:00 22,7 13,2 2 1 NW 1016,0 18 -
09.08.2020 07:00:00 22,3 14,2 4 2 W 1015,8 20 0,0
09.08.2020 06:00:00 22,6 13,9 4 2 WSW 1015,7 20 0,0
09.08.2020 05:00:00 23,3 14,0 4 2 WNW 1016,1 20 -
09.08.2020 04:00:00 23,3 15,1 2 1 NW 1016,3 20 0,0
09.08.2020 03:00:00 23,6 17,8 2 1 NNE 1016,4 20 0,0
09.08.2020 02:00:00 24,1 16,6 2 1 NW 1016,9 20 -
09.08.2020 01:00:00 25,0 19,6 4 2 W 1017,5 20 0,0
09.08.2020 00:00:00 25,6 19,9 5 3 N 1017,8 20 0,0
08.08.2020 23:00:00 26,2 19,1 8 4 E 1018,0 20 -
08.08.2020 22:00:00 26,7 19,1 4 2 ESE 1017,5 20 0,0
08.08.2020 21:00:00 27,6 18,6 4 2 SE 1017,0 20 0,0
08.08.2020 20:00:00 28,9 18,7 8 4 SSE 1016,7 20 -
08.08.2020 19:00:00 30,8 17,5 8 4 SE 1016,8 20 0,0
08.08.2020 18:00:00 31,4 15,4 8 4 SE 1017,1 20 0,0
08.08.2020 17:00:00 32,0 17,5 9 5 SSE 1017,8 20 -
08.08.2020 16:00:00 31,9 16,2 9 5 SE 1018,4 20 0,0
08.08.2020 15:00:00 31,5 15,9 11 6 SE 1019,1 20 0,0
08.08.2020 14:00:00 31,7 16,4 13 7 SE 1019,4 20 -
08.08.2020 13:00:00 32,0 14,6 13 7 SSE 1019,5 20 0,0
08.08.2020 12:00:00 32,0 12,8 5 3 SSE 1019,5 20 0,0
08.08.2020 11:00:00 30,6 15,5 8 4 SE 1019,5 20 -
08.08.2020 10:00:00 28,7 11,7 2 1 SSW 1019,4 20 0,0
08.08.2020 09:00:00 25,3 14,4 2 1 NW 1019,5 20 0,0
08.08.2020 08:00:00 21,6 14,0 2 1 NW 1019,1 20 -
08.08.2020 07:00:00 21,6 13,5 4 2 N 1019,3 20 0,0
08.08.2020 06:00:00 22,0 13,1 5 3 NNE 1019,1 20 0,0
08.08.2020 05:00:00 22,4 14,3 2 1 WNW 1018,8 20 -
08.08.2020 04:00:00 22,8 15,6 4 2 WNW 1018,5 20 0,0
08.08.2020 03:00:00 23,0 16,3 4 2 W 1019,1 20 0,0
08.08.2020 02:00:00 23,7 17,4 4 2 WNW 1019,4 20 -
08.08.2020 01:00:00 24,7 19,8 4 2 N 1019,5 20 0,0
08.08.2020 00:00:00 25,3 20,5 5 3 NNE 1019,3 20 0,0
07.08.2020 23:00:00 25,7 19,1 4 2 NNE 1018,9 20 -
07.08.2020 22:00:00 26,2 19,6 4 2 SE 1018,2 20 0,0
07.08.2020 21:00:00 27,2 18,5 4 2 SE 1017,9 20 0,0
07.08.2020 20:00:00 28,1 19,6 5 3 SE 1017,5 20 -
07.08.2020 19:00:00 29,6 19,0 9 5 ESE 1017,4 20 0,0
07.08.2020 18:00:00 30,3 19,0 9 5 SE 1017,7 20 0,0
07.08.2020 17:00:00 31,1 16,3 11 6 SE 1018,0 20 -
07.08.2020 16:00:00 30,9 18,9 11 6 SE 1018,4 20 0,0
07.08.2020 15:00:00 31,4 16,6 11 6 SE 1018,5 20 0,0
07.08.2020 14:00:00 31,4 17,7 9 5 SE 1018,8 30 -
07.08.2020 13:00:00 31,4 16,6 11 6 SSE 1018,9 20 0,0
07.08.2020 12:00:00 30,8 15,6 9 5 SE 1018,8 20 0,0
07.08.2020 11:00:00 30,1 16,9 5 3 E 1018,6 30 -
07.08.2020 10:00:00 27,9 15,5 5 3 NE 1018,5 20 0,0
07.08.2020 09:00:00 24,7 15,3 5 3 NNE 1018,5 20 0,0
07.08.2020 08:00:00 21,9 16,6 4 2 NNW 1018,5 20 -
07.08.2020 07:00:00 21,7 16,4 4 2 N 1018,0 20 0,0
07.08.2020 06:00:00 21,7 17,5 2 1 N 1017,7 20 0,0
07.08.2020 05:00:00 21,9 17,5 2 1 NW 1017,7 20 -
07.08.2020 04:00:00 22,4 17,3 4 2 WNW 1017,5 20 0,0
07.08.2020 03:00:00 23,1 18,0 4 2 WNW 1017,6 20 0,0
07.08.2020 02:00:00 23,7 18,8 4 2 N 1017,6 20 -
07.08.2020 01:00:00 24,3 18,7 8 4 NNE 1017,6 20 0,0
07.08.2020 00:00:00 24,8 19,6 4 2 NNW 1017,4 20 0,0
06.08.2020 23:00:00 25,3 19,7 4 2 N 1017,3 20 -
06.08.2020 22:00:00 25,9 19,5 5 3 ENE 1016,9 20 0,0
06.08.2020 21:00:00 26,6 19,5 8 4 E 1016,4 20 0,0
06.08.2020 20:00:00 27,7 18,4 8 4 ENE 1015,8 20 -
06.08.2020 19:00:00 28,9 19,2 8 4 E 1015,6 20 0,0
06.08.2020 18:00:00 29,8 19,8 13 7 SE 1015,7 20 0,0
06.08.2020 17:00:00 29,9 19,9 13 7 SE 1016,1 20 -
06.08.2020 16:00:00 30,5 19,5 11 6 SE 1016,3 20 0,0
06.08.2020 15:00:00 30,0 18,8 13 7 ESE 1016,7 20 0,0
06.08.2020 14:00:00 30,5 18,2 11 6 SE 1016,9 30 -
06.08.2020 13:00:00 30,6 18,7 13 7 SSE 1016,9 20 0,0
06.08.2020 12:00:00 30,4 17,5 9 5 ESE 1017,1 20 0,0
06.08.2020 11:00:00 29,4 16,9 8 4 E 1016,9 20 -
06.08.2020 10:00:00 27,9 17,4 8 4 NE 1016,6 20 0,0
06.08.2020 09:00:00 25,6 20,6 4 2 NNE 1016,4 20 0,0
06.08.2020 08:00:00 23,4 20,3 4 2 NNE 1016,0 20 -
06.08.2020 07:00:00 23,3 20,2 4 2 N 1015,6 20 0,0
06.08.2020 06:00:00 23,5 20,2 4 2 NNW 1015,1 20 0,0
06.08.2020 05:00:00 24,0 20,7 5 3 NNE 1014,9 20 -
06.08.2020 04:00:00 24,4 20,9 5 3 NNE 1014,8 20 0,0
06.08.2020 03:00:00 24,5 21,0 5 3 NNE 1014,9 20 0,0
06.08.2020 02:00:00 24,7 21,0 4 2 NNE 1014,8 20 -
06.08.2020 01:00:00 25,1 21,2 5 3 E 1014,6 20 0,0
06.08.2020 00:00:00 25,3 21,2 4 2 E 1014,5 20 0,0
05.08.2020 23:00:00 25,6 21,1 8 4 E 1014,4 20 -
05.08.2020 22:00:00 25,9 21,1 5 3 SE 1013,8 20 0,0
05.08.2020 21:00:00 26,5 21,3 8 4 SSE 1013,1 20 0,0
05.08.2020 20:00:00 27,4 21,0 8 4 ESE 1012,7 20 -
05.08.2020 19:00:00 28,6 21,4 11 6 ESE 1012,7 20 0,0
05.08.2020 18:00:00 29,6 20,7 11 6 SSE 1012,5 20 0,0
05.08.2020 17:00:00 29,8 20,6 13 7 SE 1012,7 20 -
05.08.2020 16:00:00 29,4 20,5 11 6 SE 1012,9 20 0,0
05.08.2020 15:00:00 29,9 21,0 13 7 SE 1013,2 20 0,0
05.08.2020 14:00:00 29,9 21,0 11 6 SSE 1013,6 20 -
05.08.2020 13:00:00 29,6 20,5 13 7 SE 1014,1 20 0,0
05.08.2020 12:00:00 29,6 20,7 9 5 SSE 1014,2 20 0,0
05.08.2020 11:00:00 28,2 20,7 5 3 SSE 1014,4 20 -
05.08.2020 10:00:00 27,2 20,5 5 3 NE 1014,4 20 0,0
05.08.2020 09:00:00 25,0 20,3 4 2 N 1014,4 19 0,0
05.08.2020 08:00:00 22,8 19,8 4 2 N 1014,2 20 -
05.08.2020 07:00:00 22,5 19,9 5 3 N 1013,5 20 0,0
05.08.2020 06:00:00 23,0 19,8 4 2 WNW 1013,4 20 0,0
05.08.2020 05:00:00 23,3 20,4 5 3 N 1013,2 20 -
05.08.2020 04:00:00 23,8 20,9 4 2 N 1013,3 20 0,0
05.08.2020 03:00:00 24,1 21,2 5 3 N 1013,7 20 0,0
05.08.2020 02:00:00 24,6 21,5 5 3 NNE 1014,1 20 -
05.08.2020 01:00:00 25,1 21,4 5 3 NNE 1014,2 20 0,0
05.08.2020 00:00:00 25,5 21,6 4 2 SE 1014,2 20 0,0
04.08.2020 23:00:00 25,7 21,6 5 3 SE 1014,2 20 -
04.08.2020 22:00:00 25,8 21,7 5 3 SE 1013,6 20 0,0
04.08.2020 21:00:00 26,6 21,6 5 3 SSE 1013,1 20 0,0
04.08.2020 20:00:00 27,6 21,4 8 4 SSE 1012,8 20 -
04.08.2020 19:00:00 27,2 21,2 9 5 SE 1012,6 20 0,0
04.08.2020 18:00:00 26,9 21,2 8 4 ESE 1013,0 20 0,0
04.08.2020 17:00:00 27,5 21,3 11 6 SE 1013,2 19 -
04.08.2020 16:00:00 30,0 20,6 13 7 SE 1013,3 20 0,0
04.08.2020 15:00:00 29,3 21,5 15 8 SE 1013,7 20 0,0
04.08.2020 14:00:00 30,3 21,4 9 5 SSE 1014,0 20 -
04.08.2020 13:00:00 29,2 22,2 13 7 SSE 1014,4 20 0,0
04.08.2020 12:00:00 28,6 22,4 13 7 SSE 1014,5 20 0,0
04.08.2020 11:00:00 26,9 22,9 11 6 SE 1014,5 20 -
04.08.2020 10:00:00 25,2 23,1 8 4 ESE 1014,5 1,7 5,0
04.08.2020 09:00:00 25,8 22,9 5 3 SSE 1014,2 17 0,4
04.08.2020 08:00:00 25,1 22,6 5 3 NNE 1013,9 15 -
04.08.2020 07:00:00 25,0 22,3 4 2 N 1013,6 17 0,0
04.08.2020 06:00:00 25,2 22,1 2 1 E 1013,4 18 0,0
04.08.2020 05:00:00 25,5 22,2 8 4 ENE 1013,3 19 -
04.08.2020 04:00:00 25,5 22,2 5 3 SE 1013,5 19 0,0
04.08.2020 03:00:00 25,8 22,5 5 3 E 1013,8 19 0,0
04.08.2020 02:00:00 26,1 22,6 5 3 ESE 1013,8 19 -
04.08.2020 01:00:00 26,3 22,8 5 3 ESE 1013,9 19 0,0
04.08.2020 00:00:00 26,5 22,1 5 3 SE 1013,8 20 0,0
03.08.2020 23:00:00 26,6 22,4 5 3 SSE 1013,1 20 -
03.08.2020 22:00:00 26,5 22,3 8 4 SE 1012,5 20 0,0

tt = temperature
td = dewpoint
ff = wind speed
dd = wind direction
ppp = reduced air pressure
vv = visibility
rr = precipitation

Next stations